Volver al catálogo

IUS R/B(1)

ActivoGTO
NORAD 26358·ROCKET BODY·🇺🇸 United States

Lanzado May 8, 2000 desde Cape Canaveral Space Force Station

Loading…

TLE

ObsoletoSource: Space-Track

Época: Sep 11, 2026, 22:29 UTC

1 26358U 00024C   26254.93742654  .00001124  00000-0  10531-2 0  9999
2 26358  29.1813 310.8541 7117936 357.7974   0.4370  2.44759871 62490

Sigue IUS R/B(1) en tiempo real con AllMySat

Download on the App Store